Showing default

ICEYE-X7, 46496

Orbit data source: Space-Track

ICEYE-X7, 46496 is a payload satellite owned by ICEYE (FI) in SSO that was launched on Mon, 28 Sep 2020 UTC via a SOYUZ-2-1B launch vehicle from the Plesetsk Missile And Space Complex (PKMTR). Payload-class satellites include a variety of spacecraft equipped with specific instruments for various scientific and technological missions. These include communications satellites like Starlink; space stations such as the ISS; scientific satellites like the Hubble; Earth observation satellites from companies like Planet Labs, Umbra, and HawkEye 360; GPS; miniature CubeSats for education and research; and military/defense satellites.

Loading next visibility...
Identifier
46496, 2020-068L
Orbit
SSO
Last TLE update
10 hours ago
Origin
Manufacturer
ICEYE
Mission
Operational Commercial Radar Imaging
Bus & Motor
ICEYE, Unknown motor
Mass
80 kg wet, 80 kg dry
Launch date (UTC)
2020-09-28 (5 years ago)
Launch vehicle
SOYUZ-2-1B
Launch site
Plesetsk Missile And Space Complex (PKMTR)
Object type
Payload
Rocket body
Debris
Shape & HBR
Box + 1 Pan, 3.25 m
Radar Cross Section
1.837 m², Medium (>0.1 m² and < 1m²)

Expand to show TLE details & history

TLE from 10 hours ago
0 ICEYE-X7
1 46496U 20068L   25184.18836029  .00007667  00000-0  34012-3 0  9991
2 46496  97.7071 133.5451 0011484 107.2971 252.9522 15.21821779261547
Epoch: 2025-07-03T04:31Z
TLE epoch observation values (Epoch: 2025-07-03T04:31:14.329Z)
Latitude
0.00004°
Longitude
144.2767°
Altitude
505.754 km
Speed
7.61 km/s
True Right ascension
08h 54m 10s
True Declination
0° 00' 00"
Sunlit
Object was in daylight at epoch
Visualization orbit readout
Latitude
13.85371°
Longitude
142.78128°
Altitude
502.919 km
Speed
7.614 km/s
Apparent Right ascension
10h 51m 53s
Apparent Declination
-14° 46' 28"
Sunlit
Object is in daylight
Visualization observer readout
Local Sidereal Time
01:49:55
Azimuth
69.986° E
Elevation
-43.831°
Doppler factor
1
Orbital elements
Apogee altitude
505.218 km
Perigee altitude
489.426 km
Semi-major axis
6,875.459 km
Eccentricity
0.00115
Inclination
97.7071°
RAAN
133.5451°
Arg. of periapsis
107.2971°
True anomaly
Unknown
Mean anomaly
252.9522°
Eccentric anomaly
Unknown
Mean motion
3.80707 °/min
Orbital period
94.56 mins
BSTAR
0.00034012
Loading maneuver chart data...
Loading SW <> Apogee altitude chart data...
Loading historical data...
Loading historical data...
Loading historical data...
Loading historical data...
Loading historical data...
Loading historical data...
Loading historical data...

ICEYE-X7 Visibility forecast

Observer location: undefined°, undefined°

Span
Click to sort rows by Start time (UTC) header in descending order
Start Az.
Max El. time (UTC)
Max El. Az.
Max El.
End time (UTC)
End Az.
6 mins2025-07-03 20:25:59.669Z150.852° SSE2025-07-03 20:28:59.669Z60.974° ENE39.687°2025-07-03 20:31:59.669Z357.541° N
5 mins2025-07-04 09:29:59.669Z15.531° NNE2025-07-04 09:31:59.669Z45.043° ENE44.24°2025-07-04 09:34:59.669Z190.122° SSW
|